Flag for Germany Weather past 2 weeks in Bingen am Rhein, Rhineland-Palatinate, Germany

Now
52 °F

Partly cloudy.


Feels Like: 47 °F
Forecast: 45 / 51 °F
Wind: 16 mph from Southwest

Location: Wiesbaden Airport

Current Time: Mar 29, 2015 at 7:03:00 AM

Latest Report: Mar 29, 2015 at 5:58 AM


Visibility: N/A

Pressure: 29.80 "Hg

Humidity: 88%

Dew point: 49 °F

Location of Bingen am RheinLocation

Historic Weather in Bingen am Rhein — Graph

°F

Bingen am Rhein temperature yesterday

Maximum temperature yesterday: 55 °F (at 12:58 PM)
Minimum temperature yesterday: 37 °F (at 6:58 AM)
Average temperature yesterday: 47 °F

Past Weeks' High & Low Weather Summary

 TemperatureHumidityPressure
High66 °F (Mar 18, 3:58 PM)100% (Mar 15, 5:58 AM)30.31 "Hg (Mar 15, 5:58 AM)
Low31 °F (Mar 23, 4:58 AM)40% (Mar 18, 3:58 PM)29.60 "Hg (Mar 25, 2:58 PM)
Average46 °F73%30.09 "Hg
* Reported Mar 14 4:58 AM — Mar 29 5:58 AM, Bingen am Rhein, Weather by CustomWeather, © 2015

Note: Actual official high and low records may vary slightly from our data, if they occured in-between our weather recording intervals... More about our weather records

Advertising

Bingen am Rhein weather history for previous 24 hours

 ConditionsComfort  
Time TempWeatherWind HumidityBarometerVisibility
5:58 AM
Sun, Mar 29
52 °FPartly cloudy.16 mph88%29.80 "HgN/A
4:58 AM52 °FMostly cloudy.17 mph91%29.81 "HgN/A
3:58 AM52 °FOvercast.16 mph92%29.82 "HgN/A
1:58 AM52 °FLight rain. Overcast.16 mph94%29.86 "HgN/A
12:58 AM51 °FOvercast.8 mph98%29.90 "HgN/A
11:58 PM
Sat, Mar 28
50 °FLow clouds.9 mph100%29.92 "HgN/A
10:58 PM49 °FLight rain. Low clouds.9 mph96%29.94 "HgN/A
9:58 PM50 °FOvercast.9 mph88%29.96 "HgN/A
8:58 PM49 °FOvercast.9 mph82%29.99 "HgN/A
7:58 PM48 °FOvercast.10 mph82%30.01 "HgN/A
6:58 PM48 °FOvercast.7 mph83%30.01 "HgN/A
5:58 PM48 °FOvercast.12 mph82%30.03 "HgN/A
4:58 PM52 °FLight rain. Overcast.15 mph67%30.03 "HgN/A
4:03 PM54 °FLight rain. Overcast.16 mph58%30.02 "HgN/A
3:58 PM52 °FOvercast.14 mph62%30.03 "HgN/A
2:58 PM54 °FOvercast.14 mph48%30.05 "HgN/A
1:58 PM55 °FOvercast.16 mph48%30.06 "HgN/A
12:58 PM55 °FPartly sunny.15 mph44%30.10 "HgN/A
11:58 AM53 °FScattered clouds.13 mph48%30.13 "HgN/A
10:58 AM50 °FSunny.5 mph58%30.18 "HgN/A
9:58 AM46 °FOvercast.No wind66%30.21 "HgN/A
8:58 AM43 °FOvercast.1 mph76%30.22 "HgN/A
7:58 AM41 °FOvercast.2 mph83%30.23 "HgN/A
Weather by CustomWeather, © 2015

See weather overviewHow to use our weather pages